Aswan, Egypt

2:02 AM EET on December 18, 2017 (GMT +0200)
Aswan

Weather History for HESN - September, 2012

Change the Weather History Date:

Thursday, September 20, 2012

  Actual Average Record
Temperature  
Mean Temperature 92 °F -  
Max Temperature 107 °F 96 °F 109 °F (2013)
Min Temperature 78 °F 73 °F 73 °F (2004)
Cooling Degree Days 28    
Growing Degree Days 42 (Base 50)    
Moisture  
Dew Point 41 °F    
Average Humidity 16    
Maximum Humidity 24    
Minimum Humidity 6    
Precipitation  
Precipitation 0.00 in 0.00 in - ()
Sea Level Pressure  
Sea Level Pressure 29.80 in    
Wind  
Wind Speed 6 mph ()    
Max Wind Speed 12 mph    
Max Gust Speed -    
Visibility 6.0 miles    
Events      
Averages and records for this station are not official NWS values.
T = Trace of Precipitation, MM = Missing Value Source: Averaged Metar Reports

Daily Weather History Graph

Daily Weather History Graph

Search for Another Location

Airport or City:

Trip Planner

Search our weather history database for the weather conditions in past years. The results will help you decide how hot, cold, wet, or windy it might be!

Date:

Astronomy

Sep. 20, 2012 Rise Set
Actual Time 5:36 AM EET 5:47 PM EET
Civil Twilight 5:14 AM EET 6:09 PM EET
Nautical Twilight 4:47 AM EET 6:36 PM EET
Astronomical Twilight 4:21 AM EET 7:02 PM EET
Moon 9:56 AM EET (9/20) 9:07 PM EET (9/20)
Length of Visible Light 12h 55m
Length of Day
12h 10m
Waxing Crescent, 24% of the Moon is Illuminated
Sep 20
Waxing Crescent
Sep 22
First Quarter
Sep 30
Full
Oct 8
Last Quarter
Oct 15
New

Hourly Weather History & Observations

Time (EET) Temp. Dew Point Humidity Pressure Visibility Wind Dir Wind Speed Gust Speed Precip Events Conditions
12:00 AM 87.8 °F 39.2 °F 18% 29.80 in - North 6.9 mph - N/A   Clear
1:00 AM 86.0 °F 39.2 °F 19% 29.80 in - North 6.9 mph - N/A   Clear
2:00 AM 85 °F 39 °F 11% 29.76 in 6 mi North 6.9 mph - -  
2:00 AM 84.2 °F 39.2 °F 20% 29.77 in - North 6.9 mph - N/A   Clear
3:00 AM 82.4 °F 39.2 °F 21% 29.77 in - North 4.6 mph - N/A   Clear
4:00 AM 82.4 °F 39.2 °F 21% 29.77 in - North 5.8 mph - N/A   Clear
5:00 AM 80.6 °F 37.4 °F 21% 29.80 in - North 3.5 mph - N/A   Clear
6:00 AM 78.8 °F 39.2 °F 24% 29.80 in - NNW 11.5 mph - N/A   Clear
7:00 AM 82.4 °F 41.0 °F 23% 29.83 in - North 4.6 mph - N/A   Clear
8:00 AM 86 °F 42 °F 12% 29.82 in 6 mi North 6.9 mph - -  
8:00 AM 86.0 °F 41.0 °F 20% 29.83 in - North 6.9 mph - N/A   Clear
9:00 AM 91.4 °F 44.6 °F 20% 29.86 in - North 10.4 mph - N/A   Clear
10:00 AM 96.8 °F 44.6 °F 17% 29.86 in - North 8.1 mph - N/A   Clear
11:00 AM 100.4 °F 42.8 °F 14% 29.83 in - North 4.6 mph - N/A   Clear
12:00 PM 102.2 °F 42.8 °F 13% 29.80 in - North 5.8 mph - N/A   Clear
1:00 PM 104.0 °F 44.6 °F 13% 29.80 in - NW 6.9 mph - N/A   Clear
2:00 PM 107 °F 44 °F 6% 29.72 in 6 mi WNW 4.6 mph - -  
2:00 PM 107.6 °F 44.6 °F 12% 29.77 in - WNW 4.6 mph - N/A   Clear
3:00 PM 105.8 °F 44.6 °F 13% 29.77 in - Calm Calm - N/A   Clear
4:24 PM 105.8 °F 42.8 °F 12% 29.77 in - North 3.5 mph - N/A   Clear
5:00 PM 104.0 °F 42.8 °F 12% 29.77 in - NNW 6.9 mph - N/A   Clear
6:00 PM 100.4 °F 41.0 °F 13% 29.77 in - North 5.8 mph - N/A   Clear
7:00 PM 98.6 °F 41.0 °F 14% 29.80 in - NNW 3.5 mph - N/A   Clear
8:00 PM 95 °F 40 °F 8% 29.78 in 6 mi North 3.5 mph - -  
8:00 PM 95.0 °F 39.2 °F 14% 29.80 in - North 3.5 mph - N/A   Clear
9:00 PM 93.2 °F 42.8 °F 17% 29.83 in - North 8.1 mph - N/A   Clear
10:00 PM 89.6 °F 42.8 °F 20% 29.83 in - North 8.1 mph - N/A   Clear
11:00 PM 87.8 °F 41.0 °F 19% 29.83 in - North 6.9 mph - N/A   Clear